Вернуться в каталог

STARLINK-4081

АктивенСвязьVLEO
NORAD 52660·PAYLOAD·🇺🇸 United States

Запущен May 18, 2022 с Cape Canaveral Space Force Station

Loading…

Ближайшие Пролёты (ближайшие 24 часа)

TLE

СвежийSource: CelesTrak SupGP

Эпоха: Sep 14, 2026, 21:29 UTC

1 52660C 22053E   26257.89562500 -.00018027  00000+0 -57965-3 0  2579
2 52660  53.1605  11.8975 0001238  72.5164 227.4410 15.31714027    13

Отслеживайте STARLINK-4081 в реальном времени с AllMySat

Download on the App Store